TimeGMT,TemperatureF,Dew PointF,Humidity,Sea Level PressureIn,VisibilityMPH,Wind Direction,Wind SpeedMPH,Gust SpeedMPH,PrecipitationIn,Events,Conditions,WindDirDegrees,DateUTC
12:20 AM,26.6,26.6,100,30.01,-9999.0,SE,3.5,-,N/A,,Mist,140,2013-01-17 00:20:00
12:50 AM,26.6,26.6,100,30.01,-9999.0,SE,2.3,-,N/A,,Mist,140,2013-01-17 00:50:00
1:20 AM,26.6,26.6,100,30.01,2.5,South,2.3,-,N/A,,Mist,170,2013-01-17 01:20:00
1:50 AM,26.6,26.6,100,30.01,-9999.0,South,2.3,-,N/A,,Mist,170,2013-01-17 01:50:00
2:20 AM,26.6,26.6,100,30.01,-9999.0,SE,4.6,-,N/A,,Mist,140,2013-01-17 02:20:00
2:50 AM,26.6,26.6,100,30.04,-9999.0,SE,3.5,-,N/A,,Mist,130,2013-01-17 02:50:00
3:20 AM,26.6,26.6,100,30.04,2.5,SSE,4.6,-,N/A,,Mist,150,2013-01-17 03:20:00
3:50 AM,26.6,26.6,100,30.01,2.5,SE,3.5,-,N/A,,Partly Cloudy,140,2013-01-17 03:50:00
4:50 AM,28.4,26.6,93,30.01,2.5,SE,3.5,-,N/A,,Partly Cloudy,130,2013-01-17 04:50:00
5:20 AM,28.4,26.6,93,30.01,3.7,SE,5.8,-,N/A,,Mostly Cloudy,140,2013-01-17 05:20:00
5:50 AM,28.4,26.6,93,30.01,4.3,SSE,4.6,-,N/A,Snow,Light Snow,150,2013-01-17 05:50:00
6:20 AM,28.4,26.6,93,30.01,4.3,SSE,4.6,-,N/A,Snow,Light Snow,150,2013-01-17 06:20:00
6:50 AM,28.4,28.4,100,30.01,3.7,SSE,5.8,-,N/A,Snow,Light Snow,150,2013-01-17 06:50:00
7:20 AM,28.4,26.6,93,30.01,3.7,SSE,6.9,-,N/A,Snow,Light Snow,150,2013-01-17 07:20:00
7:50 AM,28.4,28.4,100,30.04,3.7,SSE,6.9,-,N/A,Snow,Light Snow,160,2013-01-17 07:50:00
8:20 AM,28.4,28.4,100,30.04,3.7,SSE,6.9,-,N/A,Snow,Light Snow,150,2013-01-17 08:20:00
8:50 AM,30.2,28.4,93,30.04,5.0,SSE,8.1,-,N/A,,Mostly Cloudy,160,2013-01-17 08:50:00
9:20 AM,30.2,28.4,93,30.04,5.0,SSE,6.9,-,N/A,,Mostly Cloudy,160,2013-01-17 09:20:00
9:50 AM,30.2,28.4,93,30.04,6.2,SSE,9.2,-,N/A,,Mostly Cloudy,160,2013-01-17 09:50:00
10:20 AM,30.2,28.4,93,30.04,6.2,SSE,9.2,-,N/A,,Scattered Clouds,160,2013-01-17 10:20:00
10:50 AM,32.0,28.4,87,30.04,6.2,SSE,9.2,-,N/A,,Scattered Clouds,150,2013-01-17 10:50:00
11:20 AM,32.0,28.4,87,30.04,6.2,SSE,9.2,-,N/A,,Scattered Clouds,150,2013-01-17 11:20:00
11:50 AM,32.0,28.4,87,30.01,6.2,SSE,8.1,-,N/A,,Mostly Cloudy,160,2013-01-17 11:50:00
12:20 PM,32.0,28.4,87,30.01,6.2,South,8.1,-,N/A,,Mostly Cloudy,170,2013-01-17 12:20:00
12:50 PM,33.8,28.4,81,30.01,6.2,SSE,9.2,-,N/A,,Mostly Cloudy,160,2013-01-17 12:50:00
1:20 PM,33.8,28.4,81,30.01,6.2,SSE,10.4,-,N/A,,Mostly Cloudy,160,2013-01-17 13:20:00
1:50 PM,33.8,28.4,81,29.98,6.2,SSE,10.4,-,N/A,,Partly Cloudy,150,2013-01-17 13:50:00
2:20 PM,33.8,28.4,81,29.98,6.2,SSE,10.4,-,N/A,,Partly Cloudy,150,2013-01-17 14:20:00
2:50 PM,33.8,28.4,81,29.98,6.2,SSE,10.4,-,N/A,,Partly Cloudy,150,2013-01-17 14:50:00
3:20 PM,33.8,28.4,81,29.98,6.2,SSE,11.5,-,N/A,Snow,Light Snow,150,2013-01-17 15:20:00
3:50 PM,33.8,28.4,81,29.98,6.2,SSE,12.7,-,N/A,Snow,Light Snow,150,2013-01-17 15:50:00
4:20 PM,33.8,28.4,81,29.98,6.2,SSE,11.5,-,N/A,Snow,Light Snow,150,2013-01-17 16:20:00
4:50 PM,33.8,28.4,81,29.98,5.0,SSE,10.4,-,N/A,Snow,Light Snow,150,2013-01-17 16:50:00
5:20 PM,32.0,28.4,87,29.95,5.0,SE,12.7,-,N/A,Snow,Light Snow,140,2013-01-17 17:20:00
5:50 PM,32.0,30.2,93,29.95,3.7,SE,12.7,-,N/A,Snow,Light Snow,140,2013-01-17 17:50:00
6:20 PM,32.0,30.2,93,29.95,3.7,SE,12.7,-,N/A,Snow,Light Snow,130,2013-01-17 18:20:00
6:50 PM,32.0,30.2,93,29.95,-9999.0,SE,12.7,-,N/A,Snow,Light Snow,130,2013-01-17 18:50:00
7:20 PM,32.0,30.2,93,29.95,-9999.0,SE,12.7,-,N/A,Snow,Light Snow,130,2013-01-17 19:20:00
7:50 PM,30.2,30.2,100,29.95,-9999.0,SE,11.5,-,N/A,Snow,Light Snow,130,2013-01-17 19:50:00
8:20 PM,30.2,30.2,100,29.92,-9999.0,ESE,12.7,-,N/A,Snow,Light Snow,120,2013-01-17 20:20:00
8:50 PM,30.2,30.2,100,29.92,1.2,ESE,12.7,-,N/A,Snow,Snow,120,2013-01-17 20:50:00
9:20 PM,30.2,30.2,100,29.92,1.3,SE,12.7,-,N/A,Snow,Snow,130,2013-01-17 21:20:00
9:50 PM,30.2,30.2,100,29.89,3.7,SE,12.7,-,N/A,Snow,Light Snow,130,2013-01-17 21:50:00
10:20 PM,30.2,30.2,100,29.89,3.1,ESE,11.5,-,N/A,Snow,Light Snow,120,2013-01-17 22:20:00
10:50 PM,32.0,30.2,93,29.86,3.7,ESE,12.7,-,N/A,Snow,Light Snow,120,2013-01-17 22:50:00
11:20 PM,32.0,30.2,93,29.86,3.1,ESE,11.5,-,N/A,Snow,Light Snow,120,2013-01-17 23:20:00
11:50 PM,32.0,30.2,93,29.83,5.0,SE,10.4,-,N/A,Snow,Light Snow,130,2013-01-17 23:50:00